Preview of NWS' New Version of Forecast
This preview is not operational and should not be used for support decisions.

Regional Weather Roundup (RWR)

Issued by Philadelphia/Mt Holly (PHI)

                            
000
ASUS41 KPHI 260612
RWRPHI

REGIONAL WEATHER ROUNDUP
NATIONAL WEATHER SERVICE MOUNT HOLLY NJ
200 AM EDT SUN MAY 26 2019

NOTE:  "FAIR" INDICATES FEW OR NO CLOUDS BELOW 12,000 FEET WITH NO
SIGNIFICANT WEATHER AND/OR OBSTRUCTIONS TO VISIBILITY.

 * = STATION DOES NOT REPORT PRECIPITATION (E.G. RAIN, SNOW, ETC.) 
        OR FOG.

NJZ015>026-260700-
SOUTHERN NEW JERSEY
  
CITY           SKY/WX    TMP DP  RH WIND       PRES   REMARKS
POMONA         RAIN      66  64  93 SW8       30.05R FOG              
6HR MIN TEMP:  62; 6HR MAX TEMP:  66; 6HR PCP:  0.10;                

WILDWOOD*      TSTM     N/A N/A N/A SW6       30.07R                  
MILLVILLE      RAIN      64  64 100 VRB7      30.02F FOG              
WRIGHTSTOWN    MOCLDY    60  57  89 S5        29.98F                  
MOUNT HOLLY    CLOUDY    61  57  87 CALM      30.00F                  
TRENTON        CLOUDY    61  56  83 S5        30.00F                  
6HR MIN TEMP:  61; 6HR MAX TEMP:  67; 6HR PCP: TRACE;                


$$
NJZ001>014-260700-
NORTHERN NEW JERSEY
  
CITY           SKY/WX    TMP DP  RH WIND       PRES   REMARKS
SUSSEX         CLOUDY    59  58  96 S5        29.99F                  
ANDOVER*         N/A     59  54  83 CALM      30.00F                  
MORRISTOWN     CLOUDY    61  55  82 S5        30.00F                  
NEWARK         CLOUDY    61  55  81 S10       30.00F                  
TETERBORO      LGT RAIN  63  54  72 SW8       29.99F                  
CALDWELL       CLOUDY    62  55  77 VRB3      30.01F                  
SOMERVILLE     CLOUDY    59  57  93 CALM      29.99F                  
ALLAIRE*       FAIR      61  55  81 S6        30.02F                  
TOMS RIVER*    LGT RAIN  61  59  93 S5        30.02F                  

$$
PAZ043-044-047-054-055-060>062-066>071-260700-
EASTERN PENNSYLVANIA
  
CITY           SKY/WX    TMP DP  RH WIND       PRES   REMARKS
PHILADELPHIA   CLOUDY    63  61  93 S6        30.00F                  
6HR MIN TEMP:  63; 6HR MAX TEMP:  68; 6HR PCP:  0.14;                

NORTH PHILA    FAIR      64  58  80 VRB3      30.02F                  
BLUE BELL*     MOCLDY    62  59  91 S5        30.00F                  
DOYLESTOWN     CLOUDY    63  57  81 S6        30.00F                  
QUAKERTOWN*    CLOUDY    63  57  82 CALM      30.01F                  
PERKASIE*      CLOUDY    61  61 100 CALM      30.02F                  
POTTSTOWN      CLOUDY    61  58  90 S3        30.01F                  
LANCASTER      FAIR      62  60  93 E3        29.99F                  
COATESVILLE    CLOUDY    61  59  94 VRB3      30.02F                  
WEST CHESTER   CLOUDY    63  59  88 CALM      30.01F                  
READING        CLOUDY    63  61  93 S6        29.98F                  
6HR MIN TEMP:  63; 6HR MAX TEMP:  69; 6HR PCP: TRACE;                

ALLENTOWN      CLOUDY    64  56  75 S5        30.00F                  
6HR MIN TEMP:  64; 6HR MAX TEMP:  72; 6HR PCP:  0.03;                

QN CITY/ALNTWN CLOUDY    63  59  88 CALM      30.01F                  
MOUNT POCONO   LGT RAIN  57  57 100 SW8       30.00F                  
6HR MIN TEMP:  57; 6HR MAX TEMP:  62; 6HR PCP:  0.10;                

HAZLETON       CLOUDY    59  57  94 CALM      30.03F                  
LEHIGHTON      CLOUDY    61  61 100 CALM      30.01F                  
WILKES BARRE   CLOUDY    63  61  93 CALM      29.97F                  

$$
DEZALL-MDZ008-012-015-019-020-260700-
DELAWARE AND EASTERN MARYLAND
  
CITY           SKY/WX    TMP DP  RH WIND       PRES   REMARKS
WILMINGTON     MOCLDY    64  63  96 S6        30.01F                  
6HR MIN TEMP:  64; 6HR MAX TEMP:  65; 6HR PCP:  0.10;                

DOVER          MOCLDY    66  64  94 SE5       30.01F                  
CHESWOLD         N/A     64  64 100 S5        30.01F                  
GEORGETOWN     MOCLDY    71  65  81 S13       30.02F                  
6HR MIN TEMP:  66; 6HR MAX TEMP:  71; 6HR PCP: TRACE;                

EASTON         MOCLDY    70  68  95 CALM      30.06R                  
STEVENSVILLE   FAIR      70  70 100 S6        30.02S                  
PATUXENT       MOCLDY    73  70  90 NW29G44   30.05R THUNDER          
OCEAN CITY     MOCLDY    69  64  84 SW15G24   30.03F                  
WALLOPS ISLAND FAIR      70  68  93 S15       30.04F                  
CAMBRIDGE      MOCLDY    72  70  94 S8        30.03R                  
SALISBURY      FAIR      70  67  90 S10       30.02F                  

$$
PAZ001-021-NYZ056-072-MDZ011-DCZ001-260700-
OTHER NEARBY LOCATIONS
  
CITY           SKY/WX    TMP DP  RH WIND       PRES   REMARKS
HARRISBURG     MOCLDY    68  64  87 CALM      29.98F                  
STATE COLLEGE  FAIR      65  63  94 SW7       30.00S                  
WILLIAMSPORT   MOCLDY    65  63  93 CALM      29.95F                  
BINGHAMTON     CLOUDY    61  60  97 SW9       29.94F                  
NEW YORK CITY  LGT RAIN  60  55  83 VRB5      30.03                   
BALTIMORE      MOCLDY    69  64  84 CALM      30.00F                  
WASHINGTON DC  MOCLDY    71  67  87 CALM      30.01F                  

$$